Location: Sungai Laei
(2.6000°N, 113.7167°E)
Time: 14:23:03
(UTC+00:00)

Daily predictions for brighter satellites

Satellite Brightness Start Highest point End
(mag) Time Altitude Azimuth Time Altitude Azimuth Time Altitude Azimuth
Meteor 2-6 Rocket 4.1 12:05:59 56° E 12:06:07 56° E 12:11:21 10° NNE
YAOGAN 1 3.7 12:06:47 18° SSW 12:09:36 40° WSW 12:13:38 10° NNW
Okean-O 3.9 12:13:57 29° NNE 12:13:57 29° NNE 12:16:20 10° N
Ariane H10-3 3.3 12:09:34 10° WNW 12:12:02 34° WNW 12:12:02 34° WNW
Meteor 1-20 Rocket 4.0 12:10:01 10° N 12:15:31 87° E 12:16:32 61° S
Cosmos 2285 Rocket 3.9 12:09:12 10° N 12:15:36 85° ENE 12:17:29 49° SSE
ARIANE 3 DEB 3.8 12:07:30 10° W 12:15:48 56° N 12:16:35 50° NNE
deb Chang Zheng 4 4.2 12:22:24 49° NNW 12:22:24 49° NNW 12:25:30 10° NNW
Cosmos 2344 3.8 12:13:52 10° SSW 12:24:02 88° WNW 12:31:47 10° NNE
Cosmos 1763 Rocket 3.7 12:20:32 10° N 12:24:55 60° NNE 12:24:55 60° NNE
ATLAS 5 CENTAUR R/B 3.9 12:15:14 10° WNW 12:26:33 23° NNW 12:30:27 13° NNE
IRAS Rocket 4.2 12:22:00 10° NNE 12:27:03 72° NE 12:27:03 72° NE
ATLAS 5 CENTAUR R/B 2.6 12:24:28 10° NNW 12:31:20 76° ENE 12:31:50 72° ESE
USA 215 3.1 12:36:35 10° NE 12:43:08 88° NW 12:49:44 10° SW
Cosmos 1697 Rocket 4.3 13:10:52 30° WNW 13:10:52 30° WNW 13:15:43 10° NNW
Ariane H10 4.2 19:46:30 47° ESE 19:46:30 47° ESE 19:48:54 10° E
Cosmos 1943 Rocket 2.9 19:52:22 10° N 19:57:48 50° ENE 20:03:13 10° SSE
In-Cosmos 22 Rocket 4.5 20:04:49 63° ESE 20:05:03 64° E 20:10:42 10° NNE
ARIANE 5 R/B 2.9 20:07:14 58° E 20:07:14 58° E 20:17:04 10° E
MOS 1-B Rocket 3.9 20:10:30 34° SSE 20:13:28 85° ENE 20:19:11 10° N
Cosmos 1452 Rocket 4.4 20:15:51 33° SSE 20:17:39 45° ESE 20:22:39 10° NNE
Cosmos 2341 Rocket 3.9 20:13:12 10° N 20:19:35 86° W 20:22:12 39° S
Cosmos 1825 3.6 20:22:56 33° NNE 20:22:56 33° NNE 20:25:07 10° NNE
Lacrosse 4 Rocket 2.6 20:23:56 36° N 20:23:56 36° N 20:26:37 10° N
YAOGAN 6 3.9 20:20:19 10° NNE 20:23:17 39° ENE 20:23:17 39° ENE
ARIANE 5 DEB (SYLDA) 4.3 20:22:35 57° WSW 20:24:03 76° S 20:48:55 10° E
Cosmos 1626 Rocket 3.8 20:26:33 64° N 20:26:33 64° N 20:30:19 10° N
Cosmos 2366 rocket 4.1 20:22:48 10° N 20:28:57 73° E 20:35:12 10° S
Cosmos 2058 Rocket 3.9 20:30:16 10° NNE 20:34:26 48° E 20:38:38 10° SSE
Meteor 2-1 Rocket 4.0 20:28:53 10° N 20:34:29 74° W 20:37:11 31° S
Delta 198 4.2 20:34:25 42° NNW 20:34:38 42° NNW 20:39:29 10° NE
SL-8 Rocket 3.9 20:32:06 10° N 20:38:23 71° W 20:44:38 10° S
ARIANE 5 R/B 3.8 20:28:08 29° W 20:38:30 83° S 20:43:03 10° E
ARIANE 5 R/B 3.0 20:41:45 43° SW 20:42:54 52° S 21:01:46 10° E
Cosmos 1758 Rocket 3.7 20:47:04 20° S 20:50:08 75° E 20:54:32 10° N
Delta 142 3.8 20:49:44 23° NW 20:52:07 58° NNE 20:56:07 10° ESE
Ariane 44P Rocket 4.2 20:45:24 27° WSW 20:52:27 53° SSW 20:56:37 10° ESE
Meteor 2-20 4.5 20:49:18 28° SSW 20:52:31 56° W 20:58:30 10° N
Nadezhda 3 Rocket 4.0 20:49:36 21° SSW 20:53:52 60° W 21:00:06 10° N
Envisat 2.9 20:52:30 10° N 20:57:29 64° WNW 21:00:42 22° SSW
ATLAS 5 CENTAUR R/B 4.1 20:53:03 23° SW 20:59:27 36° S 21:39:12 10° ESE
Meteor 2-20 Rocket 4.4 20:58:17 10° SSW 21:04:22 66° W 21:10:26 10° N
Cosmos 1833 Rocket 3.9 21:02:10 10° S 21:07:24 40° ESE 21:12:37 10° NE
H-2A R/B 2.7 21:04:07 10° N 21:07:40 53° W 21:09:16 28° SW
FUSE 4.4 21:04:33 10° NW 21:09:50 60° NNE 21:15:06 10° ESE
Meteor 1-31 Rocket 4.2 21:06:54 10° NNE 21:10:22 36° ESE 21:13:52 10° S
ATLAS 3B CENTAUR R/B 3.9 21:09:13 10° NW 21:12:36 18° N 21:17:27 10° NNE
Cosmos 2218 Rocket 4.4 21:07:25 10° NNW 21:13:11 39° W 21:19:04 10° SSW
Cosmos 1633 2.7 21:12:40 27° SW 21:14:09 44° W 21:17:31 10° NNW
Cosmos 1023 Rocket 4.5 21:11:09 10° NNW 21:16:23 88° E 21:21:34 10° SSE
Cosmos 2251 Rocket 3.8 21:12:17 10° NNW 21:17:19 46° WSW 21:22:24 10° S
Cosmos 1110 Rocket 4.0 21:13:53 11° SSW 21:18:46 63° WNW 21:23:51 10° N
CZ-2C R/B 4.3 21:18:30 10° NW 21:20:53 17° WNW 21:20:53 17° WNW
Cosmos 2263 4.4 21:16:11 10° N 21:21:53 77° ENE 21:27:39 10° SSE
USA 281 4.4 21:16:59 10° NE 21:23:02 41° ESE 21:29:07 10° S
TSX-5 3.8 21:19:48 10° S 21:23:12 59° ESE 21:26:16 10° NNE
CZ-2C R/B 3.2 21:19:19 10° N 21:24:58 70° WNW 21:30:22 10° SSW
CZ-2C R/B 2.9 21:23:35 13° WNW 21:25:17 17° NNW 21:27:43 10° N
Atlas Centaur 2 3.9 21:19:33 11° SW 21:26:50 43° SSE 21:34:46 10° E
CZ-2C R/B 2.6 21:25:57 10° SSE 21:31:09 86° ENE 21:36:18 10° N
SL-08 R/B 3.8 21:27:06 10° SSW 21:31:19 36° WSW 21:35:31 10° NW
Cosmos 1953 Rocket 3.7 21:27:50 10° S 21:32:10 78° E 21:36:32 10° N
Cosmos 724 4.5 21:27:19 10° SSW 21:33:19 78° ESE 21:39:11 10° NNE
Cosmos 1190 Rocket 4.3 21:29:27 10° N 21:34:44 76° ENE 21:40:02 10° SSE
Cosmos 1331 Rocket 4.3 21:30:26 10° SSW 21:35:20 44° WNW 21:40:15 10° N
SWIFT 2.9 21:31:59 13° W 21:35:23 39° SSW 21:39:22 10° SE
Cosmos 1821 Rocket 4.1 21:33:53 10° NNW 21:40:05 56° W 21:46:16 10° S
Cosmos 1943 Rocket 3.9 21:40:35 10° W 21:41:14 10° WSW 21:41:39 10° WSW
Meteor 1-27 4.2 21:36:12 10° NNW 21:41:47 61° W 21:47:18 10° S
ARIANE 5 DEB (SYLDA) 3.7 21:36:05 10° W 21:45:09 59° S 21:48:40 10° ESE
Hubble Space Telescope 2.9 21:43:09 10° SSW 21:46:04 18° SSE 21:48:58 10° ESE
Cosmos 2082 Rocket 3.9 21:42:35 10° S 21:47:40 35° ESE 21:52:46 10° NE
Cosmos 2058 3.4 21:44:32 10° SSW 21:48:18 37° W 21:52:05 10° NNW
BLOCK DM-SL R/B 4.1 21:35:07 10° W 21:48:27 74° S 21:53:26 10° E
Cosmos 1340 Rocket 3.6 21:49:44 10° S 21:53:41 57° E 21:57:36 10° NNE
Cosmos 2369 Rocket 2.9 21:49:25 10° NW 21:54:11 29° WSW 21:59:00 10° SSW
Cosmos 1727 Rocket 4.2 21:51:45 10° S 21:57:57 82° E 22:04:12 10° N
ARIANE 42L R/B 4.3 21:36:56 10° W 22:05:27 81° S 22:09:54 10° E
